Track STARLINK-1762 now! 10-day predictions STARLINK-1762 is classified as:
1 46342U 20062T 22183.60083848 .00000685 00000-0 64856-4 0 9994 2 46342 53.0573 299.4379 0001535 70.5554 289.5600 15.06395475101420